Tracking 31027 objects as of 19-Jul-2025
HD Live streaming from Space Station
objects crossing your sky now

GHOST-2

Track GHOST-2 now!
10-day predictions


NORAD ID: 56197
Int'l Code: 2023-054V
Perigee: 378.7 km
Apogee: 388.5 km
Inclination: 97.3 °
Period: 92.1 minutes
Semi major axis: 6754 km
RCS: Unknown
Launch date: April 15, 2023
Source: United States (US)
Launch site: AIR FORCE WESTERN TEST RANGE (AFWTR)
Your satellite tracking list
HAWK-4A
Track 1 satellite(s)




NASA's NSSDC Master Catalog

Two Line Element Set (TLE):
1 56197U 23054V   25199.27575207  .00037071  00000-0  39491-3 0  9990
2 56197  97.3208 106.8215 0007232 137.4849 222.6972 15.63871885127273
Source of the keplerian elements: AFSPC